When you browse on this site, cookies collect data to enhance your experience and personalize the content and advertising you see.
Visit our Privacy Policy to learn more. By continuing to use the site, you agree to this use of cookies and data.
  • In Sweden
  • List of Countries
  • For 7 days
  • Water Temperature
  • Satellite Maps
  • Weather Map
  • Weather Widgets
  • user-avatar
    Login

    Hourly Weather Cliffside Park

    Today, 20 May, Monday

    Time Temperature Precipitation Wind Pressure Humidity
    00:00 +23°C° 1 mm 4 mps 754 mmHg 79%
    01:00 +23°C° 1 mm 4 mps 754 mmHg 78%
    02:00 +23°C° 0.2 mm 4 mps 754 mmHg 78%
    03:00 +23°C° 0.2 mm 4 mps 754 mmHg 77%
    04:00 +23°C° 0.2 mm 4 mps 753 mmHg 76%
    05:00 +23°C° 0 mm 4 mps 753 mmHg 73%
    06:00 +25°C° 0 mm 5 mps 753 mmHg 69%
    07:00 +26°C° 0 mm 5 mps 753 mmHg 65%
    08:00 +27°C° 0 mm 5 mps 753 mmHg 59%
    09:00 +28°C° 0 mm 5 mps 753 mmHg 53%
    10:00 +30°C° 0 mm 6 mps 753 mmHg 47%
    11:00 +30°C° 0 mm 6 mps 752 mmHg 44%
    12:00 +32°C° 0 mm 7 mps 752 mmHg 40%
    13:00 +33°C° 0 mm 7 mps 751 mmHg 37%
    14:00 +33°C° 0.1 mm 7 mps 751 mmHg 38%
    15:00 +33°C° 0.1 mm 7 mps 751 mmHg 39%
    16:00 +32°C° 0.1 mm 7 mps 750 mmHg 39%
    17:00 +32°C° 0 mm 7 mps 750 mmHg 40%
    18:00 +30°C° 0 mm 6 mps 750 mmHg 41%
    19:00 +29°C° 0 mm 5 mps 750 mmHg 42%
    20:00 +27°C° 0 mm 5 mps 751 mmHg 46%
    21:00 +24°C° 0 mm 6 mps 751 mmHg 51%
    22:00 +21°C° 0 mm 6 mps 752 mmHg 55%
    23:00 +20°C° 0 mm 6 mps 752 mmHg 52%

    Tomorrow, 21 May, Tuesday

    Time Temperature Precipitation Wind Pressure Humidity
    00:00 +17°C° 0 mm 6 mps 753 mmHg 50%
    01:00 +16°C° 0 mm 6 mps 753 mmHg 47%
    02:00 +15°C° 0 mm 6 mps 753 mmHg 50%
    03:00 +14°C° 0 mm 5 mps 753 mmHg 53%
    04:00 +13°C° 0 mm 5 mps 753 mmHg 56%
    05:00 +14°C° 0 mm 6 mps 753 mmHg 54%
    06:00 +14°C° 0 mm 6 mps 754 mmHg 52%
    07:00 +14°C° 0 mm 6 mps 754 mmHg 50%
    08:00 +16°C° 0 mm 6 mps 754 mmHg 45%
    09:00 +17°C° 0 mm 6 mps 754 mmHg 39%
    10:00 +19°C° 0 mm 6 mps 754 mmHg 34%
    11:00 +20°C° 0 mm 6 mps 754 mmHg 31%
    12:00 +22°C° 0 mm 7 mps 754 mmHg 28%
    13:00 +23°C° 0 mm 7 mps 754 mmHg 25%
    14:00 +23°C° 0 mm 7 mps 754 mmHg 25%
    15:00 +23°C° 0 mm 8 mps 754 mmHg 25%
    16:00 +23°C° 0 mm 8 mps 754 mmHg 25%
    17:00 +21°C° 0 mm 8 mps 755 mmHg 30%
    18:00 +20°C° 0 mm 7 mps 756 mmHg 34%
    19:00 +17°C° 0 mm 7 mps 757 mmHg 39%
    20:00 +17°C° 0 mm 6 mps 757 mmHg 41%
    21:00 +16°C° 0 mm 6 mps 758 mmHg 43%
    22:00 +16°C° 0 mm 6 mps 759 mmHg 45%
    23:00 +16°C° 0 mm 6 mps 759 mmHg 46%

    Day after tomorrow, 22 May, Wednesday

    Time Temperature Precipitation Wind Pressure Humidity
    00:00 +15°C° 0 mm 6 mps 759 mmHg 48%
    01:00 +15°C° 0 mm 5 mps 759 mmHg 49%
    02:00 +14°C° 0 mm 5 mps 759 mmHg 50%
    03:00 +14°C° 0 mm 5 mps 759 mmHg 50%
    04:00 +13°C° 0 mm 5 mps 759 mmHg 51%
    05:00 +14°C° 0 mm 5 mps 760 mmHg 48%
    06:00 +14°C° 0 mm 5 mps 760 mmHg 45%
    07:00 +14°C° 0 mm 5 mps 761 mmHg 43%
    08:00 +16°C° 0 mm 5 mps 761 mmHg 38%
    09:00 +18°C° 0 mm 4 mps 761 mmHg 34%
    10:00 +20°C° 0 mm 4 mps 762 mmHg 30%
    11:00 +21°C° 0 mm 4 mps 761 mmHg 27%
    12:00 +24°C° 0 mm 3 mps 761 mmHg 25%
    13:00 +25°C° 0 mm 3 mps 761 mmHg 22%
    14:00 +25°C° 0 mm 3 mps 761 mmHg 22%
    15:00 +26°C° 0 mm 3 mps 761 mmHg 23%
    16:00 +26°C° 0 mm 2 mps 761 mmHg 24%
    17:00 +25°C° 0 mm 2 mps 761 mmHg 26%
    18:00 +24°C° 0 mm 1 mps 761 mmHg 29%
    19:00 +24°C° 0 mm 1 mps 761 mmHg 32%
    20:00 +23°C° 0 mm 1 mps 762 mmHg 34%
    21:00 +22°C° 0 mm 1 mps 762 mmHg 37%
    22:00 +21°C° 0 mm 1 mps 762 mmHg 39%
    23:00 +21°C° 0.2 mm 1 mps 763 mmHg 43%

    23 May, Thursday

    Time Temperature Precipitation Wind Pressure Humidity
    00:00 +20°C° 0.2 mm 1 mps 763 mmHg 47%
    01:00 +20°C° 0.2 mm 1 mps 763 mmHg 51%
    02:00 +20°C° 0 mm 1 mps 763 mmHg 51%
    03:00 +19°C° 0 mm 1 mps 762 mmHg 52%
    04:00 +19°C° 0 mm 1 mps 762 mmHg 52%
    05:00 +19°C° 0 mm 1 mps 762 mmHg 53%
    06:00 +20°C° 0 mm 1 mps 762 mmHg 53%
    07:00 +20°C° 0 mm 1 mps 762 mmHg 53%
    08:00 +20°C° 0 mm 2 mps 762 mmHg 49%
    09:00 +23°C° 0 mm 2 mps 762 mmHg 44%
    10:00 +24°C° 0 mm 3 mps 762 mmHg 40%
    11:00 +25°C° 0 mm 3 mps 762 mmHg 39%
    12:00 +26°C° 0 mm 4 mps 761 mmHg 38%
    13:00 +27°C° 0 mm 4 mps 760 mmHg 38%
    14:00 +27°C° 0 mm 4 mps 760 mmHg 39%
    15:00 +27°C° 0 mm 4 mps 759 mmHg 41%
    16:00 +27°C° 0 mm 4 mps 759 mmHg 42%
    17:00 +26°C° 0.3 mm 4 mps 758 mmHg 48%
    18:00 +25°C° 0.3 mm 4 mps 758 mmHg 54%
    19:00 +24°C° 0.3 mm 3 mps 758 mmHg 60%
    20:00 +22°C° 0.6 mm 3 mps 758 mmHg 65%
    21:00 +22°C° 0.6 mm 4 mps 757 mmHg 69%
    22:00 +22°C° 0.6 mm 4 mps 757 mmHg 74%
    23:00 +21°C° 0.3 mm 4 mps 756 mmHg 76%

    24 May, Friday

    Time Temperature Precipitation Wind Pressure Humidity
    00:00 +21°C° 0.3 mm 4 mps 755 mmHg 79%
    01:00 +21°C° 0.3 mm 4 mps 754 mmHg 81%
    02:00 +21°C° 0.3 mm 4 mps 754 mmHg 82%
    03:00 +21°C° 0.3 mm 4 mps 754 mmHg 83%
    04:00 +21°C° 0.3 mm 4 mps 754 mmHg 83%
    05:00 +21°C° 0 mm 4 mps 754 mmHg 78%
    06:00 +22°C° 0 mm 5 mps 754 mmHg 73%
    07:00 +22°C° 0 mm 6 mps 754 mmHg 68%
    08:00 +23°C° 0 mm 6 mps 755 mmHg 62%
    09:00 +25°C° 0 mm 5 mps 755 mmHg 56%
    10:00 +26°C° 0 mm 5 mps 755 mmHg 50%
    11:00 +27°C° 0 mm 5 mps 756 mmHg 46%
    12:00 +28°C° 0 mm 5 mps 756 mmHg 43%
    13:00 +29°C° 0 mm 5 mps 757 mmHg 40%
    14:00 +28°C° 0 mm 6 mps 757 mmHg 41%
    15:00 +27°C° 0 mm 6 mps 758 mmHg 43%
    16:00 +24°C° 0 mm 6 mps 758 mmHg 44%
    17:00 +22°C° 0 mm 6 mps 759 mmHg 50%
    18:00 +20°C° 0 mm 6 mps 760 mmHg 55%
    19:00 +17°C° 0 mm 6 mps 760 mmHg 60%
    20:00 +16°C° 0 mm 5 mps 761 mmHg 60%
    21:00 +16°C° 0 mm 5 mps 762 mmHg 61%
    22:00 +15°C° 0 mm 4 mps 762 mmHg 61%
    23:00 +14°C° 0 mm 4 mps 762 mmHg 62%

    25 May, Saturday

    Time Temperature Precipitation Wind Pressure Humidity
    00:00 +14°C° 0 mm 4 mps 762 mmHg 64%
    01:00 +13°C° 0 mm 3 mps 762 mmHg 65%
    02:00 +13°C° 0 mm 3 mps 762 mmHg 67%
    03:00 +13°C° 0 mm 3 mps 763 mmHg 70%
    04:00 +14°C° 0 mm 2 mps 763 mmHg 73%
    05:00 +14°C° 0 mm 2 mps 763 mmHg 71%
    06:00 +15°C° 0 mm 2 mps 763 mmHg 70%
    07:00 +15°C° 0 mm 2 mps 763 mmHg 68%
    08:00 +16°C° 0 mm 3 mps 763 mmHg 64%
    09:00 +17°C° 0 mm 3 mps 763 mmHg 59%
    10:00 +19°C° 0 mm 4 mps 762 mmHg 54%
    11:00 +19°C° 0 mm 4 mps 762 mmHg 52%
    12:00 +20°C° 0 mm 5 mps 762 mmHg 50%
    13:00 +21°C° 0 mm 5 mps 761 mmHg 48%
    14:00 +21°C° 0 mm 5 mps 761 mmHg 50%
    15:00 +21°C° 0 mm 5 mps 761 mmHg 52%
    16:00 +20°C° 0 mm 5 mps 760 mmHg 54%
    17:00 +20°C° 0 mm 5 mps 760 mmHg 58%
    18:00 +19°C° 0 mm 5 mps 760 mmHg 62%
    19:00 +17°C° 0 mm 5 mps 760 mmHg 66%
    20:00 +17°C° 0 mm 5 mps 760 mmHg 69%
    21:00 +18°C° 0 mm 4 mps 760 mmHg 72%
    22:00 +18°C° 0 mm 4 mps 760 mmHg 75%
    23:00 +18°C° 0.2 mm 4 mps 759 mmHg 78%
    Show more